Rome, OR

7:24 PM MST on January 23, 2018 (GMT -0700)
Rome State

Weather History for KREO - January, 1999

Change the Weather History Date:

Friday, January 1, 1999

  Actual Average Record
Temperature  
Mean Temperature 34 °F 28 °F  
Max Temperature 44 °F 37 °F 60 °F (1997)
Min Temperature 24 °F 19 °F -13 °F (1942)
Degree Days  
Heating Degree Days 31 37  
Month to date heating degree days 37  
Since 1 July heating degree days 2784  
Cooling Degree Days 0 0  
Month to date cooling degree days 0  
Year to date cooling degree days 0  
Moisture  
Dew Point 23 °F    
Average Humidity 71    
Maximum Humidity 92    
Minimum Humidity 40    
Precipitation  
Precipitation 0.00 in 0.03 in 0.66 in (1997)
Month to date precipitation 0.03  
Year to date precipitation 0.03  
Sea Level Pressure  
Sea Level Pressure 30.37 in    
Wind  
Wind Speed 6 mph (South)    
Max Wind Speed 9 mph    
Max Gust Speed -    
T = Trace of Precipitation, MM = Missing Value Source: NWS Daily Summary

Daily Weather History Graph

Daily Weather History Graph

Search for Another Location

Airport or City:

Trip Planner

Search our weather history database for the weather conditions in past years. The results will help you decide how hot, cold, wet, or windy it might be!

Date:

Astronomy

Jan. 01, 1999 Rise Set
Actual Time 7:21 AM PST 4:28 PM PST
Civil Twilight 6:49 AM PST 5:00 PM PST
Nautical Twilight 6:14 AM PST 5:36 PM PST
Astronomical Twilight 5:39 AM PST 6:10 PM PST
Moon 4:32 PM PST (1/1) 6:39 AM PST (1/1)
Length of Visible Light 10h 11m
Length of Day
9h 07m
Full, 100% of the Moon is Illuminated
Jan 1
Full
Jan 1
Full
Jan 9
Last Quarter
Jan 17
New
Jan 24
First Quarter

Hourly Weather History & Observations

Time (PST) Temp. Windchill Dew Point Humidity Pressure Visibility Wind Dir Wind Speed Gust Speed Precip Events Conditions
1:52 AM 30.9 °F 22.8 °F 24.1 °F 76% 30.27 in - SW 9.2 mph - N/A   Unknown
2:52 AM 28.9 °F 22.8 °F 24.1 °F 82% 30.29 in - SSE 5.8 mph - N/A   Unknown
3:52 AM 32.0 °F 24.2 °F 23.0 °F 69% 30.30 in - SSW 9.2 mph - N/A   Unknown
4:52 AM 28.9 °F 25.2 °F 21.9 °F 75% 30.32 in - SSE 3.5 mph - N/A   Unknown
5:52 AM 27.0 °F 23.0 °F 21.9 °F 81% 30.33 in - SSW 3.5 mph - N/A   Unknown
6:52 AM 24.1 °F 17.0 °F 21.0 °F 88% 30.36 in - South 5.8 mph - N/A   Unknown
7:52 AM 26.1 °F 20.5 °F 21.0 °F 81% 30.39 in - Variable 4.6 mph - N/A   Unknown
8:52 AM 30.9 °F 26.2 °F 25.0 °F 79% 30.41 in - SW 4.6 mph - N/A   Unknown
9:52 AM 35.1 °F 31.0 °F 24.1 °F 64% 30.42 in - SW 4.6 mph - N/A   Unknown
10:52 AM 37.9 °F 35.5 °F 23.0 °F 55% 30.40 in - West 3.5 mph - N/A   Unknown
11:52 AM 41.0 °F 37.1 °F 23.0 °F 49% 30.37 in - SSW 5.8 mph - N/A   Unknown
12:52 PM 43.0 °F - 24.1 °F 47% 30.35 in - Calm Calm - N/A   Unknown
1:52 PM 43.0 °F 40.3 °F 21.9 °F 43% 30.34 in - West 4.6 mph - N/A   Unknown
2:52 PM 44.1 °F - 21.0 °F 40% 30.35 in - Calm Calm - N/A   Unknown
3:52 PM 43.0 °F 41.3 °F 21.9 °F 43% 30.35 in - NNE 3.5 mph - N/A   Unknown
4:52 PM 39.0 °F - 24.1 °F 55% 30.38 in - Calm Calm - N/A   Unknown
5:52 PM 28.9 °F 21.1 °F 25.0 °F 85% 30.41 in - SSE 8.1 mph - N/A   Unknown
6:52 PM 30.0 °F 22.4 °F 26.1 °F 85% 30.42 in - SSE 8.1 mph - N/A   Unknown
7:52 PM 30.0 °F 22.4 °F 25.0 °F 82% 30.42 in - SSE 8.1 mph - N/A   Unknown
8:52 PM 28.0 °F 20.8 °F 25.0 °F 88% 30.42 in - SSE 6.9 mph - N/A   Unknown
9:52 PM 27.0 °F 19.5 °F 24.1 °F 89% 30.44 in - South 6.9 mph - N/A   Unknown
10:52 PM 25.0 °F 20.7 °F 23.0 °F 92% 30.45 in - SSE 3.5 mph - N/A   Unknown
11:52 PM 28.9 °F 20.4 °F 24.1 °F 82% 30.42 in - SSE 9.2 mph - N/A   Unknown